Location: Unspecified
(52.1971°N, 0.0000°E)
Time: 22:41:14
(UTC+00:00)

ISS - Pass Details

Date: 21 May 2019
Orbit: 408 x 418 km, 51.6° (Epoch: 16 June)

Event Time Altitude Azimuth Distance (km) Brightness Sun altitude
Rises 01:26:43 0° 282° (WNW) 2,369 0.0 -15.1°
Reaches altitude 10° 01:28:57 10° 272° (W) 1,504 -1.2 -15.0°
Enters shadow 01:30:55 25° 244° (WSW) 890 -2.5 -14.8°
